Regional Weather Roundup
Issued by NWS Sterling, VA

Home | Current Version | Previous Version | Text Only | Print | Product List | Glossary Off
Versions: 1 2 3 4 5 6 7 8 9 10 11 12 13 14 15 16 17 18 19 20 21 22 23 24 25 26 27 28 29 30 31 32 33 34 35 36 37 38 39 40 41 42 43 44 45 46 47 48 49 50

000
ASUS41 KLWX 291210
RWRLWX

REGIONAL WEATHER ROUNDUP
NATIONAL WEATHER SERVICE BALTIMORE MD/WASHINGTON DC
800 AM EDT WED JUL 29 2015

Note: "FAIR" indicates few or no clouds below 12,000 feet
with no significant weather and/or obstructions to visibility.
 TC=TEMPERATURE CELSIUS

 * =Non NWS site. Station does not report precipitation (e.g. rain,
    snow, etc.), thunder, or fog.

DCZ001-MDZ009-015-VAZ040>042-051-053>054-291300-
WASHINGTON METRO

CITY           SKY/WX    TMP DP  RH WIND       PRES   REMARKS
WASHINGTON NAT PTSUNNY   81  75  82 SE3       30.01R
DULLES         CLOUDY    74  72  93 CALM      30.01R FOG
ANDREWS AFB    MOSUNNY   78  75  92 S3        30.00R
FT BELVOIR     PTSUNNY   76  75  97 CALM      30.00R
QUANTICO       PTSUNNY   77  72  84 MISG      30.01R
COLLEGE PARK*  MOSUNNY   77  75  94 CALM      30.00R
LEESBURG*      CLOUDY    73  73 100 SW7       30.02R FOG
MANASSAS*      CLOUDY    73  73 100 CALM      30.01R FOG
GAITHERSBURG*  CLOUDY    73  72  94 SW3       30.05S

$$

MDZ006>007-011-014-291300-
BALTIMORE METRO

CITY           SKY/WX    TMP DP  RH WIND       PRES   REMARKS
BWI AIRPORT    PTSUNNY   77  72  84 CALM      30.00R
MD SCIENCE CTR   N/A     79  73  82 MISG      30.00S
MARTIN STATE   MOSUNNY   77  75  94 CALM      30.02
ANNAPOLIS      SUNNY     79  73  82 VRB3      30.00S
FORT MEADE*    SUNNY     72  70  94 CALM      30.03R

$$

MDZ012-015-019>023-291300-
MARYLAND EASTERN SHORE

CITY           SKY/WX    TMP DP  RH WIND       PRES   REMARKS
OCEAN CITY     SUNNY     78  74  87 MISG      30.02R
SALISBURY      PTSUNNY   77  75  93 S3        30.02R
BAY BRIDGE AP*   N/A     79  75  89 CALM      30.00S
CAMBRIDGE*     MOSUNNY   77  73  88 CALM      30.00S
EASTON*        MOSUNNY   77  77 100 CALM      30.04S FOG

$$

MDZ017>025-291300-
SOUTHERN MARYLAND

CITY           SKY/WX    TMP DP  RH WIND       PRES   REMARKS
PATUXENT RIVER PTSUNNY   76  71  85 SW8       30.00R
ST INIGOES     CLOUDY    78  71  79 SW8       30.00R
LEONARDTOWN*   CLOUDY    75  70  83 CALM      30.02S

$$

MDZ003>005-291300-
NORTH CENTRAL MARYLAND

CITY           SKY/WX    TMP DP  RH WIND       PRES   REMARKS
FREDERICK*     PTSUNNY   73  73 100 CALM      30.03S FOG
HAGERSTOWN APT SUNNY     74  70  87 CALM      30.02R FOG
WESTMINSTER*   PTSUNNY   73  72  94 CALM      30.03R FOG

$$

MDZ501>502-291300-
WESTERN MARYLAND

CITY           SKY/WX    TMP DP  RH WIND       PRES   REMARKS
OAKLAND*       FOG       64 N/A N/A SE7       30.11S VSB<1/4
CUMBERLAND*    CLOUDY    72  72 100 CALM      30.07R

$$

VAZ025>031-291300-
SHENANDOAH VALLEY

CITY           SKY/WX    TMP DP  RH WIND       PRES   REMARKS
WINCHESTER*    CLOUDY    72  72 100 W6        30.03R FOG
FRONT ROYAL*   CLOUDY    70  70 100 CALM      30.01S VSB 3/4
LURAY*         CLOUDY    72  72 100 CALM      30.03R
NEW MARKET*    PTSUNNY   71  71  99 CALM      30.01S
STAUNTON*      CLOUDY    73  71  93 CALM      30.06R
WAYNESBORO*    CLOUDY    71  71  99 W5        30.05R

$$

WVZ021-048>050-054>055-291300-
EASTERN WEST VIRGINIA PANHANDLE

CITY           SKY/WX    TMP DP  RH WIND       PRES   REMARKS
MARTINSBURG    MOSUNNY   72  69  90 NW3       30.02R FOG
PETERSBURG*    CLOUDY   N/A N/A N/A CALM      30.05R HAZE

$$

VAZ036>039-050-291300-
CENTRAL FOOTHILLS

CITY           SKY/WX    TMP DP  RH WIND       PRES   REMARKS
CHARLOTTESVILL FOG       73  72  96 N3        30.02R VSB 1/4
CULPEPER*      CLOUDY    72  72 100 CALM      30.02R FOG
ORANGE*        CLOUDY    73  73 100 CALM      30.03R FOG
GORDONSVILLE*  PTSUNNY   73  73 100 CALM      30.01R
WARRENTON*     CLOUDY    74  74 100 CALM      30.01R FOG

$$

VAZ055>057-291300-
NORTH AND CENTRAL PIEDMONT

CITY           SKY/WX    TMP DP  RH WIND       PRES   REMARKS
FREDERICKSBRG* CLOUDY    30  30 100 CALM      30.00R FOG
STAFFORD*      CLOUDY    72  71  97 CALM      30.05R

$$

NCZ024-NYZ072-PAZ021-071-VAZ022-071-291300-
OTHER REGIONAL OBSERVATIONS

CITY           SKY/WX    TMP DP  RH WIND       PRES   REMARKS
NEW YORK CITY  SUNNY     80  65  59 CALM      30.01R
PHILADELPHIA   MOSUNNY   82  70  66 CALM      30.00R
PITTSBURGH     PTSUNNY   73  66  78 E3        30.00S
ROANOKE        CLOUDY    74  72  93 W5        30.07R
RICHMOND       LGT RAIN  77  72  84 S5        30.02R
RALEIGH        PTSUNNY   76  70  82 S5        30.03R

$$

ANZ530>537-291300-
MARINE OBSERVATIONS

STATION/POSITION TIME  TEMP    WIND        PRES
                       AIR SEA DIR/SP/G
                 (UTC) (F)     (DEG/KT/KT) (MB)
THOMAS PT LIGHT  NOT AVBL
BALT KEY BRIDGE  1100   76     240/  3/  4 1015.6R
COVE POINT       1100   78     250/  7/  9 1016.2R
LEWISETTA        1100   76 84  230/  5/  6 1015.2S
SOLOMONS ISLAND  1100      82                N/A

$$



USA.gov is the U.S. government's official web portal to all federal, state and local government web resources and services.